sat.trackr.live / text

‹ back to catalog

STARLINK-36135

NORAD 66986 · 2025-288AD

PAYLOAD ACTIVE UNKNOWN

§ Identity

Operator
Country
US
Launch date
2025-12-08
Launch site
AFETR
Launch vehicle
Mass (kg)
RCS (m²)

Purposes: comms

External: N2YO · Heavens-Above · Gunter

§ Orbital elements

Epoch: 2026-09-20T07:46:03.641664Z

Period
94.27 min
Inclination
43.0025°
Eccentricity
0.0001318
Mean motion
15.27578971 rev/d
Perigee alt
482.1 km
Apogee alt
484.0 km
Semi-major
6,861.2 km
B*
1.7389e-4
RAAN
4.3010°
Arg perigee
277.8305°
Mean anomaly
82.2397°
Rev number
4,505

§ Raw data

STARLINK-361351 66986U 25288AD  26263.32365326  .00004526  00000+0  17389-3 0  99962 66986  43.0025   4.3010 0001318 277.8305  82.2397 15.27578971 45051

JSON: /api/v1/satellites/66986 · /tle

For live sub-satellite position, see the globe view (requires WebGL).

§ Visibility from observer

Set your observer location to see the next 7 days of passes ≥ 10°. The values pass through the URL so the page stays shareable.

No JS? Fill the form by hand. The geolocation button needs JavaScript.